QPF
0.00 0.00 0.00 0.00 0.00 0.00 0.00 0.00 0.00 0.00 0.00 0.00 0.00 0.00 0.00 0.00 0.00 0.00 0.00 0.00 0.00 0.00 0.00 0.00 0.00 0.00 0.00 0.00 0.01 0.03 0.06 0.11 0.14 0.14 0.15 0.16 0.13 0.12 0.10 0.10 0.08 0.06 0.05
0.00 0.00 0.00 0.00 0.00 0.00 0.00 0.00 0.00 0.00 0.00 0.00 0.00 0.00 0.00 0.00 0.00 0.00 0.00 0.00 0.00 0.00 0.00 0.00 0.00 0.00 0.00 0.00 0.01 0.03 0.05 0.08 0.12 0.15 0.16 0.18 0.16 0.13 0.11 0.10 0.08 0.06 0.04
0.00 0.00 0.00 0.00 0.00 0.00 0.00 0.00 0.00 0.00 0.00 0.00 0.00 0.00 0.00 0.00 0.00 0.00 0.00 0.00 0.00 0.00 0.00 0.00 0.00 0.00 0.00 0.00 0.00 0.01 0.04 0.07 0.10 0.13 0.17 0.22 0.20 0.16 0.13 0.10 0.08 0.06 0.04
0.00 0.00 0.00 0.00 0.00 0.00 0.00 0.00 0.00 0.00 0.00 0.00 0.00 0.00 0.00 0.00 0.00 0.00 0.00 0.00 0.00 0.00 0.00 0.00 0.00 0.00 0.00 0.00 0.00 0.01 0.03 0.05 0.09 0.13 0.18 0.25 0.28 0.20 0.16 0.13 0.10 0.06 0.03
0.00 0.00 0.00 0.00 0.00 0.00 0.00 0.00 0.00 0.00 0.00 0.00 0.00 0.00 0.00 0.00 0.00 0.00 0.00 0.00 0.00 0.00 0.00 0.00 0.00 0.00 0.00 0.00 0.00 0.01 0.03 0.04 0.06 0.12 0.18 0.24 0.30 0.27 0.19 0.15 0.12 0.08 0.04
0.00 0.00 0.00 0.00 0.00 0.00 0.00 0.00 0.00 0.00 0.00 0.00 0.00 0.00 0.00 0.00 0.00 0.00 0.00 0.00 0.00 0.00 0.00 0.00 0.00 0.00 0.00 0.00 0.00 0.01 0.03 0.04 0.05 0.08 0.15 0.22 0.29 0.30 0.25 0.21 0.18 0.12 0.07
0.00 0.00 0.00 0.00 0.00 0.00 0.00 0.00 0.00 0.00 0.00 0.00 0.00 0.00 0.00 0.00 0.00 0.00 0.00 0.00 0.00 0.00 0.00 0.00 0.00 0.00 0.00 0.00 0.01 0.01 0.02 0.04 0.06 0.06 0.09 0.17 0.25 0.31 0.33 0.28 0.23 0.18 0.10
0.00 0.00 0.00 0.00 0.00 0.00 0.00 0.00 0.00 0.00 0.00 0.00 0.00 0.00 0.00 0.00 0.00 0.00 0.00 0.00 0.00 0.00 0.00 0.00 0.00 0.00 0.00 0.00 0.01 0.01 0.02 0.04 0.06 0.08 0.08 0.10 0.21 0.29 0.34 0.39 0.33 0.29 0.23
0.00 0.00 0.00 0.00 0.00 0.00 0.00 0.00 0.00 0.00 0.00 0.00 0.00 0.00 0.00 0.00 0.00 0.00 0.00 0.00 0.00 0.00 0.00 0.00 0.00 0.00 0.00 0.00 0.01 0.01 0.02 0.04 0.06 0.10 0.11 0.10 0.16 0.28 0.35 0.41 0.45 0.39 0.31
0.00 0.00 0.00 0.00 0.00 0.00 0.00 0.00 0.00 0.00 0.00 0.00 0.00 0.00 0.00 0.00 0.00 0.00 0.01 0.01 0.01 0.01 0.01 0.01 0.02 0.01 0.01 0.01 0.01 0.01 0.01 0.02 0.05 0.09 0.13 0.11 0.12 0.19 0.30 0.33 0.36 0.38 0.31
0.00 0.00 0.00 0.00 0.00 0.00 0.00 0.00 0.00 0.00 0.00 0.00 0.00 0.00 0.00 0.00 0.00 0.00 0.01 0.01 0.01 0.02 0.02 0.02 0.03 0.02 0.02 0.01 0.01 0.02 0.02 0.02 0.04 0.07 0.11 0.14 0.12 0.12 0.19 0.26 0.30 0.34 0.32
0.00 0.00 0.00 0.00 0.00 0.00 0.00 0.00 0.00 0.00 0.00 0.00 0.00 0.00 0.00 0.00 0.00 0.00 0.01 0.01 0.01 0.02 0.02 0.03 0.02 0.03 0.03 0.02 0.02 0.02 0.04 0.04 0.05 0.06 0.08 0.11 0.12 0.10 0.11 0.18 0.26 0.31 0.31
0.00 0.00 0.00 0.00 0.00 0.00 0.00 0.00 0.00 0.00 0.00 0.00 0.00 0.00 0.00 0.00 0.00 0.00 0.01 0.01 0.02 0.02 0.04 0.04 0.03 0.03 0.03 0.03 0.03 0.03 0.04 0.05 0.05 0.05 0.06 0.07 0.10 0.10 0.09 0.13 0.24 0.36 0.37
0.00 0.00 0.00 0.00 0.00 0.00 0.00 0.00 0.00 0.00 0.00 0.00 0.00 0.00 0.00 0.00 0.00 0.01 0.01 0.01 0.01 0.02 0.04 0.04 0.04 0.05 0.05 0.05 0.04 0.04 0.04 0.05 0.05 0.04 0.06 0.07 0.07 0.12 0.13 0.13 0.19 0.32 0.42
0.00 0.00 0.00 0.00 0.00 0.00 0.00 0.00 0.00 0.00 0.00 0.00 0.00 0.00 0.00 0.00 0.00 0.01 0.01 0.01 0.01 0.01 0.03 0.04 0.05 0.05 0.05 0.04 0.04 0.04 0.05 0.06 0.06 0.05 0.05 0.07 0.08 0.09 0.14 0.15 0.17 0.23 0.32
0.00 0.00 0.00 0.00 0.00 0.00 0.00 0.00 0.00 0.00 0.00 0.00 0.00 0.00 0.00 0.00 0.00 0.00 0.01 0.01 0.01 0.01 0.02 0.03 0.05 0.06 0.06 0.06 0.05 0.04 0.04 0.05 0.06 0.05 0.04 0.05 0.08 0.08 0.11 0.16 0.18 0.21 0.24
0.00 0.00 0.00 0.00 0.00 0.00 0.00 0.00 0.00 0.00 0.00 0.00 0.00 0.00 0.00 0.00 0.00 0.00 0.00 0.01 0.01 0.02 0.02 0.02 0.02 0.04 0.06 0.05 0.05 0.06 0.05 0.05 0.05 0.04 0.03 0.04 0.06 0.08 0.09 0.13 0.18 0.21 0.24
0.00 0.00 0.00 0.00 0.00 0.00 0.00 0.00 0.00 0.00 0.00 0.00 0.00 0.00 0.01 0.01 0.00 0.00 0.00 0.00 0.01 0.03 0.03 0.03 0.03 0.04 0.05 0.04 0.05 0.06 0.06 0.05 0.05 0.04 0.03 0.03 0.04 0.06 0.09 0.11 0.15 0.20 0.23
0.00 0.00 0.00 0.00 0.00 0.00 0.00 0.00 0.00 0.00 0.00 0.00 0.00 0.01 0.01 0.01 0.01 0.00 0.00 0.01 0.01 0.02 0.02 0.02 0.03 0.05 0.05 0.04 0.04 0.05 0.05 0.04 0.05 0.03 0.02 0.02 0.02 0.04 0.07 0.10 0.12 0.17 0.21
0.00 0.00 0.00 0.00 0.00 0.00 0.00 0.00 0.00 0.00 0.01 0.01 0.01 0.01 0.01 0.00 0.01 0.01 0.01 0.01 0.01 0.01 0.01 0.01 0.03 0.04 0.04 0.04 0.03 0.04 0.04 0.04 0.05 0.04 0.02 0.01 0.01 0.02 0.04 0.07 0.12 0.14 0.16
0.00 0.00 0.00 0.00 0.00 0.00 0.00 0.00 0.00 0.01 0.01 0.01 0.01 0.01 0.01 0.01 0.01 0.01 0.01 0.01 0.01 0.02 0.02 0.02 0.02 0.03 0.03 0.04 0.04 0.03 0.03 0.04 0.03 0.03 0.02 0.01 0.01 0.01 0.02 0.05 0.10 0.13 0.14
0.00 0.00 0.00 0.00 0.00 0.00 0.00 0.00 0.00 0.00 0.00 0.01 0.01 0.01 0.01 0.01 0.01 0.01 0.01 0.01 0.01 0.01 0.01 0.02 0.02 0.02 0.03 0.04 0.05 0.04 0.03 0.04 0.03 0.02 0.02 0.01 0.00 0.01 0.02 0.04 0.07 0.11 0.14
0.00 0.00 0.00 0.00 0.00 0.00 0.00 0.00 0.00 0.00 0.00 0.01 0.01 0.01 0.02 0.01 0.01 0.01 0.01 0.01 0.01 0.01 0.01 0.01 0.02 0.01 0.03 0.04 0.04 0.03 0.03 0.03 0.02 0.02 0.02 0.01 0.01 0.00 0.01 0.03 0.05 0.07 0.11
0.00 0.00 0.00 0.00 0.00 0.00 0.00 0.00 0.00 0.00 0.01 0.01 0.01 0.02 0.02 0.01 0.01 0.01 0.01 0.00 0.00 0.01 0.01 0.01 0.03 0.03 0.04 0.04 0.04 0.04 0.04 0.04 0.03 0.02 0.02 0.02 0.01 0.01 0.01 0.02 0.04 0.05 0.08
0.00 0.00 0.00 0.00 0.00 0.00 0.00 0.00 0.00 0.00 0.00 0.01 0.01 0.02 0.02 0.02 0.02 0.02 0.01 0.01 0.01 0.01 0.01 0.01 0.02 0.03 0.03 0.04 0.04 0.04 0.04 0.04 0.03 0.03 0.03 0.03 0.02 0.01 0.01 0.02 0.03 0.05 0.07
0.01 0.00 0.00 0.00 0.00 0.00 0.00 0.00 0.00 0.00 0.01 0.01 0.01 0.01 0.02 0.02 0.02 0.02 0.02 0.02 0.01 0.02 0.02 0.01 0.01 0.02 0.02 0.01 0.02 0.02 0.03 0.03 0.03 0.03 0.03 0.02 0.02 0.02 0.02 0.02 0.03 0.05 0.07
MSLP
1013.97 1013.99 1014.04 1014.08 1014.08 1014.02 1013.91 1013.76 1013.59 1013.42 1013.26 1013.11 1012.98 1012.84 1012.68 1012.50 1012.28 1012.06 1011.85 1011.67 1011.56 1011.53 1011.58 1011.70 1011.88 1012.07 1012.25 1012.39 1012.47 1012.50 1012.46 1012.38 1012.26 1012.11 1011.95 1011.77 1011.58 1011.38 1011.19 1011.01 1010.86 1010.77 1010.75
1013.73 1013.69 1013.69 1013.69 1013.67 1013.61 1013.49 1013.35 1013.18 1013.01 1012.84 1012.69 1012.54 1012.39 1012.23 1012.04 1011.83 1011.62 1011.41 1011.24 1011.13 1011.08 1011.10 1011.20 1011.34 1011.51 1011.68 1011.84 1011.96 1012.05 1012.09 1012.10 1012.07 1012.01 1011.92 1011.81 1011.67 1011.52 1011.36 1011.20 1011.07 1011.00 1011.00
1013.47 1013.40 1013.36 1013.33 1013.28 1013.19 1013.06 1012.90 1012.72 1012.54 1012.36 1012.19 1012.03 1011.87 1011.70 1011.51 1011.32 1011.11 1010.92 1010.75 1010.64 1010.57 1010.58 1010.64 1010.75 1010.90 1011.06 1011.23 1011.38 1011.51 1011.62 1011.70 1011.75 1011.77 1011.77 1011.73 1011.66 1011.57 1011.47 1011.38 1011.31 1011.29 1011.34
1013.22 1013.13 1013.07 1013.00 1012.92 1012.79 1012.63 1012.44 1012.23 1012.02 1011.82 1011.62 1011.45 1011.27 1011.10 1010.93 1010.74 1010.56 1010.38 1010.22 1010.11 1010.04 1010.02 1010.06 1010.14 1010.27 1010.41 1010.58 1010.74 1010.90 1011.05 1011.19 1011.30 1011.39 1011.46 1011.49 1011.50 1011.49 1011.47 1011.46 1011.48 1011.55 1011.67
1012.97 1012.88 1012.80 1012.71 1012.58 1012.42 1012.21 1011.97 1011.72 1011.47 1011.24 1011.02 1010.82 1010.64 1010.47 1010.30 1010.13 1009.97 1009.81 1009.67 1009.56 1009.49 1009.46 1009.48 1009.54 1009.64 1009.76 1009.91 1010.08 1010.25 1010.42 1010.58 1010.74 1010.87 1010.99 1011.09 1011.17 1011.24 1011.32 1011.41 1011.53 1011.70 1011.92
1012.74 1012.66 1012.57 1012.45 1012.29 1012.07 1011.81 1011.52 1011.22 1010.93 1010.65 1010.40 1010.18 1009.99 1009.82 1009.66 1009.51 1009.36 1009.23 1009.11 1009.01 1008.94 1008.91 1008.91 1008.95 1009.02 1009.13 1009.26 1009.41 1009.57 1009.75 1009.92 1010.09 1010.26 1010.42 1010.56 1010.70 1010.85 1011.00 1011.19 1011.41 1011.69 1012.00
1012.53 1012.47 1012.37 1012.23 1012.02 1011.75 1011.44 1011.10 1010.74 1010.40 1010.08 1009.80 1009.56 1009.35 1009.18 1009.02 1008.89 1008.76 1008.64 1008.54 1008.45 1008.39 1008.35 1008.34 1008.37 1008.42 1008.51 1008.62 1008.75 1008.90 1009.07 1009.24 1009.42 1009.59 1009.77 1009.95 1010.14 1010.33 1010.56 1010.83 1011.13 1011.50 1011.91
1012.34 1012.29 1012.19 1012.02 1011.77 1011.46 1011.09 1010.69 1010.29 1009.90 1009.54 1009.23 1008.96 1008.74 1008.56 1008.40 1008.27 1008.16 1008.05 1007.96 1007.88 1007.83 1007.79 1007.77 1007.79 1007.83 1007.90 1007.99 1008.11 1008.25 1008.41 1008.58 1008.75 1008.93 1009.12 1009.32 1009.53 1009.77 1010.04 1010.35 1010.72 1011.14 1011.62
1012.16 1012.12 1012.00 1011.80 1011.51 1011.15 1010.74 1010.30 1009.85 1009.42 1009.03 1008.69 1008.40 1008.16 1007.96 1007.81 1007.67 1007.56 1007.46 1007.37 1007.30 1007.24 1007.20 1007.19 1007.19 1007.23 1007.28 1007.37 1007.49 1007.62 1007.78 1007.95 1008.13 1008.32 1008.52 1008.73 1008.96 1009.21 1009.49 1009.83 1010.22 1010.67 1011.17
1011.97 1011.91 1011.77 1011.54 1011.22 1010.82 1010.37 1009.89 1009.41 1008.96 1008.54 1008.17 1007.86 1007.61 1007.40 1007.23 1007.09 1006.97 1006.87 1006.78 1006.70 1006.64 1006.60 1006.57 1006.57 1006.60 1006.66 1006.75 1006.87 1007.01 1007.18 1007.37 1007.57 1007.77 1007.99 1008.21 1008.44 1008.69 1008.97 1009.30 1009.68 1010.12 1010.63
1011.73 1011.64 1011.47 1011.20 1010.85 1010.42 1009.95 1009.45 1008.96 1008.49 1008.06 1007.68 1007.35 1007.09 1006.87 1006.69 1006.54 1006.41 1006.30 1006.20 1006.11 1006.04 1005.98 1005.95 1005.94 1005.96 1006.02 1006.12 1006.25 1006.41 1006.61 1006.83 1007.05 1007.29 1007.53 1007.76 1007.99 1008.24 1008.50 1008.80 1009.14 1009.55 1010.03
1011.42 1011.30 1011.09 1010.79 1010.40 1009.96 1009.47 1008.97 1008.47 1008.01 1007.58 1007.20 1006.88 1006.60 1006.38 1006.19 1006.03 1005.89 1005.77 1005.65 1005.55 1005.46 1005.39 1005.34 1005.31 1005.33 1005.38 1005.48 1005.63 1005.82 1006.05 1006.30 1006.57 1006.85 1007.11 1007.37 1007.61 1007.84 1008.08 1008.34 1008.64 1008.99 1009.42
1011.05 1010.88 1010.62 1010.29 1009.89 1009.43 1008.95 1008.46 1007.98 1007.52 1007.11 1006.75 1006.43 1006.17 1005.94 1005.75 1005.59 1005.44 1005.30 1005.17 1005.05 1004.94 1004.84 1004.76 1004.72 1004.72 1004.76 1004.87 1005.03 1005.24 1005.50 1005.79 1006.10 1006.42 1006.72 1007.00 1007.25 1007.48 1007.70 1007.92 1008.17 1008.47 1008.84
1010.61 1010.39 1010.10 1009.75 1009.33 1008.88 1008.41 1007.94 1007.48 1007.06 1006.67 1006.33 1006.04 1005.79 1005.57 1005.38 1005.22 1005.07 1004.92 1004.78 1004.63 1004.50 1004.37 1004.27 1004.19 1004.17 1004.19 1004.28 1004.44 1004.67 1004.95 1005.28 1005.63 1005.98 1006.32 1006.63 1006.90 1007.13 1007.34 1007.53 1007.74 1007.99 1008.31
1010.14 1009.89 1009.57 1009.19 1008.78 1008.34 1007.89 1007.45 1007.03 1006.63 1006.28 1005.96 1005.69 1005.46 1005.26 1005.08 1004.92 1004.77 1004.62 1004.47 1004.31 1004.15 1003.99 1003.86 1003.75 1003.69 1003.68 1003.75 1003.90 1004.13 1004.42 1004.76 1005.14 1005.52 1005.89 1006.23 1006.52 1006.76 1006.96 1007.14 1007.33 1007.54 1007.82
1009.67 1009.39 1009.06 1008.68 1008.28 1007.86 1007.43 1007.02 1006.63 1006.26 1005.93 1005.64 1005.39 1005.17 1004.99 1004.82 1004.67 1004.52 1004.37 1004.21 1004.04 1003.87 1003.69 1003.52 1003.38 1003.28 1003.25 1003.29 1003.41 1003.62 1003.90 1004.25 1004.64 1005.04 1005.43 1005.79 1006.10 1006.35 1006.56 1006.75 1006.92 1007.12 1007.38
1009.21 1008.93 1008.61 1008.25 1007.86 1007.46 1007.06 1006.66 1006.29 1005.94 1005.62 1005.34 1005.10 1004.89 1004.71 1004.55 1004.41 1004.27 1004.12 1003.97 1003.79 1003.61 1003.41 1003.23 1003.06 1002.93 1002.87 1002.88 1002.97 1003.15 1003.42 1003.75 1004.14 1004.54 1004.94 1005.31 1005.63 1005.91 1006.13 1006.32 1006.51 1006.71 1006.96
1008.79 1008.53 1008.23 1007.89 1007.52 1007.14 1006.75 1006.37 1006.00 1005.65 1005.33 1005.05 1004.79 1004.58 1004.40 1004.24 1004.09 1003.96 1003.82 1003.67 1003.50 1003.31 1003.12 1002.92 1002.74 1002.60 1002.51 1002.50 1002.57 1002.73 1002.97 1003.28 1003.64 1004.03 1004.43 1004.80 1005.13 1005.42 1005.66 1005.87 1006.07 1006.29 1006.55
1008.38 1008.16 1007.89 1007.58 1007.24 1006.88 1006.50 1006.11 1005.73 1005.37 1005.03 1004.71 1004.44 1004.20 1004.00 1003.83 1003.68 1003.55 1003.41 1003.27 1003.11 1002.94 1002.75 1002.56 1002.39 1002.25 1002.15 1002.13 1002.18 1002.32 1002.54 1002.82 1003.16 1003.53 1003.91 1004.27 1004.60 1004.90 1005.15 1005.39 1005.61 1005.86 1006.14
1007.96 1007.80 1007.57 1007.30 1006.98 1006.63 1006.25 1005.85 1005.45 1005.06 1004.68 1004.33 1004.02 1003.75 1003.52 1003.33 1003.16 1003.02 1002.89 1002.75 1002.61 1002.45 1002.29 1002.12 1001.97 1001.84 1001.76 1001.74 1001.79 1001.92 1002.12 1002.38 1002.69 1003.04 1003.39 1003.74 1004.06 1004.35 1004.62 1004.87 1005.12 1005.39 1005.71
1007.52 1007.40 1007.22 1006.99 1006.70 1006.35 1005.97 1005.56 1005.13 1004.70 1004.28 1003.89 1003.54 1003.23 1002.97 1002.75 1002.57 1002.41 1002.27 1002.14 1002.01 1001.88 1001.74 1001.60 1001.48 1001.38 1001.32 1001.32 1001.38 1001.50 1001.69 1001.94 1002.23 1002.55 1002.87 1003.19 1003.50 1003.79 1004.06 1004.32 1004.59 1004.89 1005.24
1007.01 1006.95 1006.82 1006.62 1006.35 1006.01 1005.63 1005.20 1004.76 1004.30 1003.85 1003.43 1003.04 1002.70 1002.41 1002.17 1001.96 1001.79 1001.64 1001.51 1001.39 1001.26 1001.14 1001.03 1000.94 1000.87 1000.84 1000.87 1000.94 1001.08 1001.27 1001.50 1001.77 1002.06 1002.36 1002.65 1002.93 1003.20 1003.47 1003.74 1004.03 1004.35 1004.72
1006.45 1006.43 1006.34 1006.17 1005.93 1005.61 1005.23 1004.81 1004.36 1003.89 1003.43 1002.99 1002.59 1002.24 1001.92 1001.66 1001.44 1001.25 1001.09 1000.94 1000.82 1000.70 1000.59 1000.49 1000.42 1000.37 1000.37 1000.41 1000.50 1000.65 1000.83 1001.06 1001.31 1001.57 1001.84 1002.10 1002.36 1002.61 1002.87 1003.13 1003.43 1003.77 1004.16
1005.86 1005.87 1005.82 1005.68 1005.47 1005.17 1004.82 1004.41 1003.97 1003.52 1003.08 1002.65 1002.26 1001.90 1001.59 1001.32 1001.08 1000.88 1000.70 1000.54 1000.39 1000.26 1000.14 1000.04 999.97 999.94 999.94 999.99 1000.09 1000.23 1000.41 1000.62 1000.85 1001.08 1001.32 1001.55 1001.79 1002.01 1002.26 1002.52 1002.82 1003.17 1003.58
1005.27 1005.32 1005.29 1005.19 1005.00 1004.74 1004.42 1004.05 1003.66 1003.25 1002.84 1002.45 1002.09 1001.76 1001.47 1001.20 1000.96 1000.74 1000.54 1000.35 1000.17 1000.01 999.87 999.75 999.66 999.61 999.60 999.65 999.73 999.86 1000.02 1000.21 1000.41 1000.61 1000.82 1001.02 1001.22 1001.42 1001.65 1001.90 1002.20 1002.56 1002.98
1004.74 1004.81 1004.81 1004.74 1004.59 1004.37 1004.10 1003.79 1003.45 1003.10 1002.76 1002.43 1002.12 1001.83 1001.56 1001.32 1001.08 1000.85 1000.63 1000.41 1000.19 999.99 999.80 999.64 999.51 999.43 999.39 999.40 999.46 999.56 999.68 999.84 1000.00 1000.16 1000.33 1000.50 1000.67 1000.85 1001.05 1001.30 1001.60 1001.95 1002.39
Thickness
5657 5652 5647 5643 5638 5634 5629 5626 5622 5618 5615 5611 5608 5605 5603 5601 5599 5597 5597 5597 5597 5598 5600 5602 5604 5606 5609 5613 5616 5620 5624 5629 5634 5643 5651 5658 5665 5671 5677 5683 5688 5693 5698
5652 5647 5642 5638 5633 5628 5624 5621 5616 5612 5609 5605 5602 5598 5596 5594 5592 5590 5588 5589 5589 5590 5592 5593 5596 5598 5601 5604 5608 5612 5617 5622 5627 5634 5641 5648 5655 5662 5667 5673 5678 5683 5688
5648 5642 5637 5633 5628 5623 5619 5615 5611 5607 5603 5599 5595 5592 5589 5587 5585 5583 5581 5581 5581 5582 5583 5584 5587 5589 5592 5595 5599 5603 5608 5614 5619 5625 5632 5639 5646 5652 5657 5662 5667 5672 5677
5644 5638 5633 5628 5623 5619 5614 5610 5605 5601 5597 5593 5590 5586 5583 5581 5578 5576 5574 5573 5573 5573 5574 5575 5577 5580 5583 5586 5590 5595 5599 5604 5610 5616 5622 5629 5636 5643 5648 5652 5656 5661 5666
5639 5633 5629 5624 5619 5614 5609 5605 5600 5596 5592 5588 5584 5580 5577 5574 5572 5569 5567 5566 5564 5564 5564 5565 5567 5570 5574 5577 5581 5586 5590 5595 5601 5607 5614 5620 5628 5634 5640 5645 5648 5652 5656
5634 5629 5625 5619 5614 5609 5605 5600 5595 5591 5586 5582 5577 5574 5571 5568 5566 5562 5559 5557 5555 5554 5554 5555 5556 5559 5564 5568 5572 5577 5582 5587 5592 5599 5606 5612 5620 5627 5633 5638 5642 5645 5648
5630 5625 5620 5615 5610 5605 5600 5595 5590 5585 5581 5576 5572 5568 5564 5561 5557 5554 5551 5548 5546 5545 5544 5544 5546 5550 5553 5557 5562 5567 5573 5578 5585 5591 5598 5605 5612 5621 5626 5631 5635 5640 5644
5626 5621 5616 5610 5605 5600 5595 5590 5585 5580 5575 5570 5566 5562 5558 5555 5550 5546 5543 5540 5537 5536 5535 5535 5536 5539 5542 5545 5550 5556 5563 5569 5576 5583 5591 5598 5604 5612 5620 5625 5630 5631 5634
5622 5617 5612 5606 5601 5595 5590 5585 5580 5574 5570 5565 5561 5556 5552 5549 5544 5539 5534 5531 5529 5528 5527 5527 5528 5529 5532 5534 5539 5545 5552 5559 5565 5573 5580 5588 5596 5604 5611 5615 5619 5623 5626
5619 5614 5608 5602 5596 5591 5586 5581 5576 5570 5565 5560 5556 5551 5546 5543 5538 5532 5527 5523 5521 5520 5519 5519 5519 5521 5523 5524 5529 5535 5542 5549 5555 5562 5569 5577 5586 5594 5602 5609 5615 5619 5623
5616 5610 5605 5599 5592 5587 5582 5576 5571 5565 5560 5555 5550 5546 5541 5536 5532 5526 5520 5516 5513 5511 5511 5511 5512 5512 5513 5516 5520 5527 5533 5539 5545 5552 5560 5568 5575 5584 5593 5600 5608 5615 5620
5613 5607 5601 5595 5589 5585 5578 5572 5567 5561 5556 5551 5545 5541 5536 5530 5525 5520 5515 5510 5506 5504 5504 5504 5504 5504 5505 5508 5512 5518 5522 5527 5535 5543 5551 5559 5567 5576 5584 5592 5600 5607 5614
5609 5603 5598 5592 5586 5580 5573 5568 5563 5558 5551 5546 5541 5536 5531 5526 5520 5515 5510 5506 5503 5500 5499 5498 5498 5498 5498 5501 5505 5509 5513 5520 5528 5535 5544 5552 5559 5568 5575 5583 5590 5597 5603
5605 5599 5593 5587 5582 5577 5571 5565 5559 5554 5549 5544 5538 5533 5528 5522 5517 5512 5507 5503 5500 5498 5496 5494 5494 5494 5495 5497 5501 5504 5509 5515 5523 5530 5538 5544 5550 5559 5568 5575 5583 5590 5595
5601 5595 5589 5584 5578 5573 5568 5562 5557 5552 5545 5540 5536 5530 5524 5521 5516 5508 5503 5501 5497 5494 5492 5492 5492 5492 5493 5495 5497 5501 5505 5510 5516 5523 5530 5537 5544 5552 5560 5569 5576 5583 5590
5596 5591 5585 5580 5575 5570 5565 5561 5557 5551 5545 5539 5532 5526 5522 5517 5512 5507 5502 5499 5495 5492 5491 5492 5492 5492 5493 5494 5496 5499 5503 5508 5513 5519 5526 5532 5540 5547 5555 5562 5570 5579 5585
5592 5586 5581 5576 5571 5566 5562 5556 5554 5552 5546 5540 5534 5528 5522 5517 5512 5507 5503 5499 5496 5493 5492 5493 5492 5492 5493 5494 5496 5499 5503 5506 5511 5517 5523 5529 5536 5543 5550 5558 5566 5574 5581
5587 5582 5577 5572 5567 5563 5558 5554 5549 5545 5542 5540 5535 5529 5523 5519 5514 5509 5504 5500 5500 5497 5496 5495 5494 5494 5494 5495 5497 5499 5502 5506 5509 5515 5521 5527 5533 5540 5547 5555 5563 5571 5578
5583 5578 5573 5569 5565 5561 5556 5552 5548 5543 5539 5536 5533 5530 5524 5519 5515 5510 5505 5503 5502 5501 5500 5498 5497 5497 5497 5498 5499 5501 5504 5507 5511 5515 5520 5526 5531 5537 5545 5552 5560 5566 5574
5578 5574 5571 5567 5563 5559 5555 5551 5547 5543 5538 5535 5532 5529 5524 5519 5517 5513 5509 5506 5505 5504 5503 5502 5501 5501 5501 5501 5502 5504 5506 5509 5512 5516 5520 5524 5529 5536 5543 5550 5557 5564 5571
5574 5569 5567 5563 5560 5557 5554 5550 5546 5542 5538 5535 5532 5529 5523 5519 5517 5514 5512 5510 5508 5507 5506 5505 5505 5505 5505 5505 5506 5508 5510 5512 5515 5518 5521 5524 5529 5535 5541 5547 5555 5562 5567
5568 5564 5561 5559 5557 5555 5552 5548 5544 5541 5538 5535 5533 5530 5525 5522 5518 5515 5514 5513 5512 5511 5510 5509 5509 5509 5509 5510 5511 5512 5513 5516 5518 5520 5523 5525 5529 5534 5540 5546 5552 5558 5564
5563 5560 5558 5556 5555 5552 5551 5547 5543 5540 5537 5535 5532 5529 5527 5523 5520 5518 5516 5515 5514 5513 5513 5512 5513 5513 5513 5513 5514 5515 5517 5519 5521 5523 5525 5527 5530 5534 5540 5545 5550 5556 5561
5559 5556 5554 5553 5552 5550 5548 5545 5542 5539 5536 5534 5531 5528 5526 5524 5521 5519 5518 5517 5516 5515 5514 5515 5515 5516 5516 5517 5517 5518 5519 5521 5523 5525 5527 5530 5533 5536 5540 5545 5550 5554 5560
5554 5552 5550 5549 5548 5546 5544 5542 5540 5537 5535 5532 5530 5527 5526 5524 5522 5520 5519 5518 5517 5516 5515 5515 5516 5516 5517 5518 5519 5520 5521 5522 5524 5526 5528 5531 5535 5538 5542 5545 5550 5553 5558
5549 5547 5546 5545 5543 5542 5541 5539 5537 5535 5533 5530 5528 5527 5525 5523 5521 5520 5519 5518 5517 5516 5515 5515 5516 5517 5517 5519 5519 5520 5521 5523 5524 5526 5530 5533 5536 5539 5542 5545 5549 5553 5556